Wind_Speed
11 11 11 11 11 12 12 12 12 13 13 14 14 14 15 15 15 16 17 17 18 19 19 20 21 21 21 22 23 24 25 25 25 26 26 27 27 27
11 12 12 12 12 12 12 13 13 13 14 15 15 15 15 15 16 17 17 18 18 18 20 20 21 21 22 23 23 24 24 25 26 27 27 28 28 29
12 12 13 13 12 13 13 13 13 14 15 15 16 16 17 17 17 17 18 18 18 19 19 20 20 21 22 22 22 23 24 25 26 27 28 28 29 30
13 13 14 13 13 13 13 13 14 15 15 16 17 17 18 17 17 17 18 18 19 19 19 20 20 21 22 22 23 23 24 26 27 28 29 29 30 30
13 14 14 13 13 14 14 14 14 15 15 16 17 18 19 18 18 17 18 19 19 20 20 21 22 22 22 23 23 24 25 26 27 27 28 29 30 30
14 14 14 14 14 15 15 14 15 15 16 17 18 19 19 19 19 19 19 20 20 21 21 22 22 22 23 24 25 26 27 28 28 28 29 30 31 32
15 15 15 16 16 16 16 15 16 16 17 18 19 19 20 19 19 19 20 20 20 21 21 21 22 22 23 24 25 26 27 28 29 29 30 31 32 32
16 16 17 17 17 16 16 17 17 18 18 19 19 20 20 20 20 20 21 20 21 21 22 22 23 24 25 26 27 28 29 30 30 31 31 32 32 33
17 17 17 17 17 18 18 18 18 19 20 20 20 21 21 21 21 21 22 22 22 23 23 24 25 26 26 27 28 29 30 31 31 32 32 33 33 33
19 19 18 18 18 19 19 19 20 20 20 20 21 21 22 21 22 22 23 23 24 24 25 26 27 27 27 28 29 30 31 32 32 32 33 33 33 33
18 19 19 19 19 20 20 20 20 21 21 21 21 22 23 23 24 24 24 24 25 26 26 27 28 28 28 29 30 31 32 33 33 33 33 33 33 33
19 20 20 20 20 21 21 21 21 21 21 21 22 23 23 24 24 25 25 26 26 27 28 28 28 29 29 30 31 31 32 33 33 34 34 34 33 33
20 20 20 21 21 21 22 22 22 22 22 23 23 23 24 25 25 25 25 26 27 28 28 28 28 29 30 31 32 32 32 32 32 33 33 33 32 32
21 21 21 21 22 22 23 23 23 23 23 24 24 24 25 26 26 26 26 27 27 28 28 29 29 30 31 32 31 31 31 30 30 31 31 31 31 32
22 23 23 22 23 23 23 24 24 24 25 25 26 26 26 27 27 26 27 27 28 28 29 30 30 31 31 31 31 31 31 31 31 30 30 30 31 32
23 24 24 24 24 24 25 25 25 26 26 26 26 26 27 27 27 27 27 28 29 29 30 30 31 31 31 31 31 31 31 31 31 31 31 31 32 32
24 24 25 25 25 26 26 27 27 28 27 26 26 26 26 27 27 28 28 29 29 30 30 31 31 31 31 31 31 31 30 30 30 31 31 32 32 33
25 25 25 26 27 27 28 28 28 28 28 28 28 28 28 28 28 28 29 29 29 30 30 31 31 31 31 30 30 30 30 30 31 31 32 32 32 32
26 26 26 27 27 28 28 28 28 29 29 29 28 28 28 28 29 29 29 30 30 31 31 31 31 30 30 30 30 31 31 31 31 32 32 33 32 32
27 27 26 27 28 28 28 29 29 29 29 28 28 28 28 29 29 30 30 31 31 31 31 31 31 31 31 31 31 31 31 32 32 32 32 32 32 33
27 27 27 28 28 28 29 29 29 28 28 28 28 29 29 30 30 30 30 30 31 31 31 30 30 30 31 31 31 32 32 32 32 32 33 33 33 33
28 28 29 29 28 29 29 29 28 28 28 28 29 30 30 30 30 31 31 31 31 31 31 31 31 31 31 32 32 32 32 32 32 33 33 34 33 33
29 29 29 28 28 28 28 28 28 28 29 29 30 30 31 31 30 30 31 31 31 32 31 31 31 31 32 33 33 32 32 32 33 33 33 34 34 33
Wind_Direction
322 318 315 311 309 309 308 308 308 309 307 303 303 302 301 296 290 288 287 285 281 280 279 278 278 279 279 278 277 275 274 275 276 276 277 279 279 279
318 317 316 308 308 308 305 305 306 307 307 305 304 303 301 300 296 293 293 290 285 284 282 280 279 281 281 280 278 277 276 277 278 278 279 279 278 278
316 313 316 314 311 312 311 309 308 307 306 309 307 307 304 302 301 299 296 294 291 288 287 284 281 281 283 282 280 280 279 278 278 279 280 280 279 279
322 316 314 313 311 312 313 312 312 313 312 312 312 310 307 303 301 299 297 296 296 292 289 287 285 285 284 283 283 283 282 281 280 280 280 280 281 281
326 323 319 317 315 314 312 311 312 310 311 311 310 310 308 305 304 300 297 297 295 291 290 290 288 287 287 287 287 286 285 284 283 283 283 283 284 284
327 325 321 318 317 315 314 311 310 311 312 312 311 310 309 308 308 306 301 299 298 297 294 292 291 289 289 289 288 288 287 287 286 286 285 284 284 284
325 326 325 321 319 316 315 314 313 313 311 310 310 310 309 307 308 308 307 304 302 302 300 297 295 293 292 292 292 291 290 288 288 287 286 286 285 285
325 324 323 320 319 317 316 315 315 314 313 312 311 312 310 308 307 308 309 305 302 301 300 299 298 296 294 294 294 293 292 291 290 289 288 287 286 286
323 322 321 319 317 315 314 313 314 314 313 314 312 311 310 309 309 309 308 305 303 302 301 300 299 297 295 294 293 293 292 292 291 290 288 288 287 287
319 320 318 317 315 314 314 314 314 314 313 312 312 311 310 309 310 309 308 306 304 303 301 300 300 298 296 295 294 294 293 292 291 290 289 289 288 288
320 321 320 318 316 314 313 313 313 313 313 312 311 310 309 309 309 309 307 306 305 304 301 300 299 299 297 296 295 294 294 293 292 291 291 290 291 290
320 321 320 318 316 316 315 314 313 313 314 314 312 312 311 310 309 308 307 306 304 304 302 300 300 299 298 297 296 295 295 294 293 292 292 292 292 292
318 318 318 319 319 317 317 316 315 314 314 313 312 312 311 310 308 307 306 305 305 305 304 302 301 300 300 299 298 297 297 296 295 294 294 294 294 293
314 315 316 317 318 317 317 316 315 315 314 313 311 311 311 311 310 309 308 307 307 306 305 304 303 302 301 301 300 299 298 296 295 296 295 295 294 293
310 311 312 314 316 316 316 316 315 314 313 312 311 311 311 311 311 311 311 309 307 306 306 305 305 304 303 302 301 300 299 298 297 297 296 296 295 295
306 308 310 312 313 314 315 315 314 313 312 312 311 311 311 312 312 312 312 311 310 308 308 307 307 306 305 304 303 301 301 301 300 298 298 298 298 298
303 307 309 310 311 312 312 312 312 312 311 311 311 310 311 312 313 313 313 312 311 310 309 309 308 308 306 305 304 304 303 302 302 301 300 300 299 300
301 304 307 309 310 311 310 310 310 309 309 309 309 309 309 310 312 312 312 312 311 311 310 309 309 308 308 307 306 305 304 304 304 303 303 303 303 302
300 303 305 308 309 309 308 308 308 308 307 308 308 308 309 310 311 311 311 312 312 312 311 311 311 309 308 308 307 306 306 305 305 305 305 305 304 303
299 301 304 306 307 306 306 307 307 307 307 306 307 308 308 309 310 310 311 312 312 313 313 312 312 311 311 310 309 308 307 306 306 305 304 304 304 304
298 299 301 304 304 304 305 306 306 306 307 307 308 308 308 308 309 310 312 312 313 313 313 313 313 312 311 311 310 309 308 308 307 306 306 304 304 303
296 297 299 301 302 303 304 305 305 306 308 309 310 309 309 309 310 311 312 313 313 314 313 313 313 313 313 312 311 310 308 308 308 307 307 306 305 305
295 297 299 300 301 302 304 305 305 306 307 308 308 309 309 310 311 312 313 313 314 314 313 313 314 314 313 313 312 311 309 309 308 308 308 307 307 307
Height
5875 5873 5872 5870 5868 5867 5865 5864 5862 5860 5858 5855 5853 5851 5850 5848 5846 5844 5843 5841 5840 5838 5837 5836 5835 5834 5832 5831 5829 5828 5827 5826 5825 5824 5823 5821 5820 5818
5872 5871 5869 5868 5866 5864 5862 5860 5859 5857 5855 5852 5850 5848 5846 5844 5842 5840 5839 5837 5835 5833 5832 5831 5829 5828 5826 5824 5823 5822 5820 5819 5818 5817 5815 5813 5812 5810
5869 5868 5866 5865 5863 5861 5859 5857 5855 5853 5851 5849 5846 5844 5842 5840 5838 5836 5834 5832 5830 5828 5826 5825 5823 5821 5820 5818 5817 5815 5814 5812 5810 5809 5807 5806 5804 5802
5866 5865 5863 5862 5860 5858 5856 5854 5852 5850 5848 5846 5843 5841 5838 5836 5833 5831 5829 5827 5825 5822 5821 5819 5817 5815 5814 5812 5810 5808 5807 5805 5803 5801 5800 5798 5796 5794
5864 5862 5860 5858 5857 5855 5853 5851 5849 5847 5845 5843 5840 5837 5834 5831 5829 5826 5824 5822 5820 5817 5815 5813 5811 5809 5807 5806 5803 5802 5800 5798 5796 5793 5791 5789 5787 5785
5861 5859 5857 5855 5854 5852 5849 5847 5845 5843 5841 5839 5836 5833 5830 5827 5824 5822 5819 5817 5814 5811 5809 5807 5805 5803 5801 5799 5797 5794 5792 5790 5787 5785 5783 5780 5778 5776
5859 5857 5855 5852 5850 5848 5846 5844 5842 5839 5837 5834 5832 5829 5826 5823 5820 5817 5814 5812 5809 5806 5803 5801 5799 5796 5794 5791 5789 5786 5784 5782 5779 5777 5774 5771 5769 5766
5856 5854 5852 5849 5847 5845 5842 5840 5838 5836 5833 5830 5827 5824 5821 5818 5815 5812 5809 5806 5804 5801 5798 5795 5792 5790 5787 5784 5782 5779 5776 5773 5770 5768 5765 5762 5760 5757
5853 5850 5848 5846 5843 5841 5838 5836 5833 5831 5828 5825 5822 5819 5816 5813 5810 5807 5804 5801 5798 5795 5792 5789 5786 5783 5780 5777 5774 5771 5768 5765 5762 5759 5756 5753 5750 5747
5849 5847 5844 5842 5839 5837 5834 5832 5829 5826 5823 5820 5817 5814 5811 5808 5805 5802 5798 5795 5791 5789 5785 5782 5779 5776 5772 5769 5766 5762 5759 5756 5753 5750 5746 5743 5740 5737
5846 5843 5840 5838 5835 5832 5830 5827 5824 5821 5818 5815 5812 5809 5805 5802 5799 5795 5792 5788 5785 5782 5779 5775 5772 5768 5765 5761 5757 5754 5750 5747 5743 5740 5737 5734 5731 5728
5842 5839 5837 5834 5831 5828 5825 5823 5820 5816 5813 5810 5806 5803 5800 5796 5793 5789 5785 5782 5778 5775 5771 5768 5764 5760 5757 5753 5749 5745 5742 5738 5734 5731 5727 5724 5721 5718
5838 5835 5832 5829 5826 5823 5821 5818 5815 5811 5808 5804 5801 5798 5794 5790 5786 5782 5778 5775 5771 5767 5764 5760 5756 5752 5748 5745 5741 5737 5733 5729 5725 5722 5718 5715 5712 5709
5833 5830 5828 5825 5821 5819 5816 5813 5809 5806 5802 5799 5795 5792 5788 5784 5780 5776 5771 5767 5763 5759 5755 5752 5748 5744 5740 5736 5732 5728 5724 5720 5717 5713 5710 5706 5703 5700
5828 5825 5822 5819 5816 5813 5810 5807 5804 5800 5796 5793 5789 5785 5781 5777 5773 5769 5765 5760 5756 5752 5748 5744 5740 5736 5731 5727 5724 5720 5716 5712 5708 5705 5701 5698 5694 5691
5823 5820 5817 5814 5811 5808 5805 5801 5798 5794 5790 5786 5782 5778 5774 5770 5766 5762 5758 5754 5749 5745 5740 5736 5732 5727 5723 5719 5715 5711 5707 5703 5700 5696 5693 5689 5685 5682
5817 5814 5811 5808 5805 5802 5798 5795 5791 5787 5783 5779 5776 5772 5768 5763 5759 5755 5751 5746 5742 5738 5733 5728 5724 5719 5715 5711 5707 5703 5699 5695 5691 5688 5684 5681 5677 5673
5810 5808 5805 5802 5799 5795 5792 5788 5784 5781 5777 5773 5769 5765 5761 5757 5753 5748 5744 5739 5735 5730 5725 5721 5716 5712 5707 5703 5699 5695 5691 5687 5683 5679 5675 5671 5668 5663
5803 5801 5798 5795 5792 5789 5785 5781 5777 5774 5770 5766 5762 5758 5754 5750 5745 5741 5737 5732 5728 5723 5718 5713 5708 5704 5699 5695 5691 5687 5683 5678 5674 5670 5666 5663 5659 5655
5796 5794 5791 5788 5785 5781 5778 5774 5770 5766 5762 5758 5754 5750 5747 5743 5738 5734 5729 5725 5720 5715 5711 5706 5701 5696 5692 5688 5683 5679 5674 5670 5666 5662 5658 5654 5650 5646
5789 5786 5783 5780 5777 5774 5770 5766 5762 5759 5755 5751 5747 5743 5739 5735 5731 5726 5722 5717 5713 5708 5703 5698 5693 5689 5684 5680 5676 5671 5666 5662 5657 5653 5649 5645 5641 5637
5781 5778 5775 5772 5769 5766 5762 5759 5755 5751 5748 5744 5740 5736 5732 5728 5723 5719 5714 5710 5705 5700 5696 5691 5686 5681 5677 5672 5667 5663 5658 5654 5649 5644 5640 5636 5631 5627
5773 5770 5767 5764 5761 5758 5755 5751 5748 5744 5740 5736 5732 5728 5724 5720 5716 5711 5707 5702 5698 5693 5688 5684 5679 5674 5669 5664 5659 5654 5650 5645 5641 5636 5632 5626 5622 5618